sat.trackr.live / text

‹ back to catalog

STARLINK-36419

NORAD 67584 · 2026-016Z

PAYLOAD ACTIVE UNKNOWN

§ Identity

Operator
Country
US
Launch date
2026-01-25
Launch site
AFWTR
Launch vehicle
Mass (kg)
RCS (m²)

Purposes: comms

External: N2YO · Heavens-Above · Gunter

§ Orbital elements

Epoch: 2026-05-25T03:07:11.147232Z

Period
93.91 min
Inclination
97.2851°
Eccentricity
0.0000518
Mean motion
15.33455027 rev/d
Perigee alt
465.2 km
Apogee alt
465.9 km
Semi-major
6,843.7 km
B*
7.9573e-4
RAAN
205.5369°
Arg perigee
73.1982°
Mean anomaly
286.9318°
Rev number
1,858

§ Raw data

STARLINK-364191 67584U 26016Z   26145.12999013  .00025709  00000+0  79573-3 0  99932 67584  97.2851 205.5369 0000518  73.1982 286.9318 15.33455027 18582

JSON: /api/v1/satellites/67584 · /tle

For live sub-satellite position, see the globe view (requires WebGL).

§ Visibility from observer

Set your observer location to see the next 7 days of passes ≥ 10°. The values pass through the URL so the page stays shareable.

No JS? Fill the form by hand. The geolocation button needs JavaScript.